Radiation Dose at Monitoring Post of Fukushima Daini Nuclear Power Station
Date,Time,MP-1(microSv/h),MP-2(microSv/h),MP-3(microSv/h),MP-4(microSv/h),MP-5(microSv/h),MP-6(microSv/h),MP-7(microSv/h),Wind Direction,Wind Velocity(m/s),Rain
2015/09/22,00:00,0.481,0.280,0.502,0.463,0.453,0.225,0.196,north,2.6,No
2015/09/22,00:10,0.479,0.281,0.503,0.463,0.450,0.226,0.195,north,2.2,No
2015/09/22,00:20,0.482,0.282,0.502,0.462,0.453,0.225,0.196,north,2.3,No
2015/09/22,00:30,0.477,0.280,0.501,0.465,0.451,0.226,0.195,north,2.5,No
2015/09/22,00:40,0.483,0.279,0.501,0.462,0.453,0.224,0.196,north,2.2,No
2015/09/22,00:50,0.478,0.281,0.505,0.464,0.452,0.225,0.197,north,3.0,No
2015/09/22,01:00,0.482,0.282,0.501,0.463,0.452,0.226,0.195,north-northwest,3.1,No
2015/09/22,01:10,0.477,0.280,0.502,0.463,0.450,0.226,0.196,north-northwest,2.8,No
2015/09/22,01:20,0.483,0.281,0.500,0.463,0.451,0.225,0.196,north-northwest,2.2,No
2015/09/22,01:30,0.478,0.279,0.505,0.464,0.451,0.225,0.196,north-northwest,2.0,No
2015/09/22,01:40,0.480,0.281,0.499,0.464,0.453,0.225,0.196,north-northwest,2.0,No
2015/09/22,01:50,0.478,0.279,0.505,0.464,0.450,0.226,0.196,north-northwest,2.4,No
2015/09/22,02:00,0.480,0.281,0.499,0.461,0.453,0.225,0.196,north-northwest,2.6,No
2015/09/22,02:10,0.478,0.279,0.504,0.464,0.449,0.225,0.195,north,2.4,No
2015/09/22,02:20,0.480,0.281,0.500,0.463,0.454,0.225,0.196,north,1.9,No
2015/09/22,02:30,0.480,0.279,0.506,0.461,0.451,0.226,0.195,north,1.9,No
2015/09/22,02:40,0.480,0.281,0.499,0.462,0.453,0.226,0.195,north,1.9,No
2015/09/22,02:50,0.481,0.280,0.505,0.463,0.450,0.226,0.195,north-northwest,2.5,No
2015/09/22,03:00,0.482,0.280,0.500,0.463,0.453,0.225,0.195,north-northwest,1.9,No
2015/09/22,03:10,0.480,0.278,0.504,0.464,0.448,0.226,0.196,north,2.4,No
2015/09/22,03:20,0.479,0.281,0.502,0.461,0.455,0.226,0.196,north,2.5,No
2015/09/22,03:30,0.481,0.279,0.504,0.464,0.450,0.225,0.196,north-northwest,2.7,No
2015/09/22,03:40,0.478,0.280,0.501,0.461,0.455,0.226,0.195,north,3.0,No
2015/09/22,03:50,0.480,0.281,0.504,0.465,0.448,0.226,0.197,north-northwest,2.9,No
2015/09/22,04:00,0.479,0.279,0.501,0.461,0.455,0.226,0.195,north-northwest,2.7,No
2015/09/22,04:10,0.482,0.280,0.503,0.465,0.450,0.226,0.195,north-northwest,3.3,No
2015/09/22,04:20,0.477,0.279,0.500,0.462,0.453,0.225,0.196,north-northwest,4.2,No
2015/09/22,04:30,0.482,0.281,0.504,0.464,0.450,0.226,0.196,north-northwest,4.1,No
2015/09/22,04:40,0.479,0.278,0.502,0.461,0.454,0.225,0.195,north-northwest,4.5,No
2015/09/22,04:50,0.481,0.280,0.504,0.464,0.449,0.226,0.196,north-northwest,4.2,No
2015/09/22,05:00,0.477,0.279,0.502,0.460,0.454,0.225,0.195,north-northwest,4.3,No
2015/09/22,05:10,0.481,0.281,0.502,0.466,0.449,0.226,0.197,north-northwest,4.7,No
2015/09/22,05:20,0.477,0.280,0.502,0.461,0.453,0.225,0.195,north-northwest,5.1,No
2015/09/22,05:30,0.482,0.281,0.503,0.466,0.451,0.226,0.194,north-northwest,4.7,No
2015/09/22,05:40,0.478,0.280,0.500,0.461,0.451,0.226,0.196,north-northwest,4.2,No
2015/09/22,05:50,0.481,0.280,0.503,0.464,0.452,0.225,0.195,north-northwest,4.9,No
2015/09/22,06:00,0.478,0.283,0.500,0.462,0.452,0.225,0.195,north-northwest,5.4,No
2015/09/22,06:10,0.482,0.280,0.502,0.464,0.452,0.224,0.195,north-northwest,5.9,No
2015/09/22,06:20,0.477,0.281,0.500,0.461,0.451,0.226,0.196,north-northwest,6.7,No
2015/09/22,06:30,0.479,0.280,0.503,0.464,0.453,0.225,0.195,north-northwest,5.9,No
2015/09/22,06:40,0.477,0.280,0.500,0.460,0.452,0.226,0.195,north-northwest,5.3,No
2015/09/22,06:50,0.481,0.279,0.505,0.464,0.452,0.225,0.194,north-northwest,5.0,No
2015/09/22,07:00,0.478,0.282,0.499,0.461,0.450,0.225,0.194,north-northwest,4.3,No
2015/09/22,07:10,0.482,0.281,0.504,0.464,0.450,0.225,0.195,north-northwest,4.1,No
2015/09/22,07:20,0.476,0.280,0.501,0.460,0.452,0.225,0.194,northwest,4.3,No
2015/09/22,07:30,0.482,0.281,0.503,0.465,0.447,0.224,0.193,north-northwest,4.2,No
2015/09/22,07:40,0.477,0.280,0.501,0.457,0.452,0.226,0.193,north-northwest,3.7,No
2015/09/22,07:50,0.481,0.279,0.501,0.462,0.449,0.224,0.193,north-northwest,4.2,No
2015/09/22,08:00,0.477,0.280,0.501,0.463,0.454,0.225,0.192,north-northwest,3.9,No
2015/09/22,08:10,0.479,0.278,0.498,0.457,0.449,0.225,0.193,north-northwest,4.0,No
2015/09/22,08:20,0.481,0.279,0.503,0.456,0.448,0.226,0.193,north-northwest,3.8,No
2015/09/22,08:30,0.474,0.281,0.498,0.464,0.453,0.224,0.193,north-northwest,4.7,No
2015/09/22,08:40,0.480,0.279,0.503,0.462,0.450,0.226,0.194,north-northwest,4.8,No
2015/09/22,08:50,0.481,0.278,0.502,0.458,0.447,0.226,0.194,north,4.7,No
2015/09/22,09:00,0.477,0.276,0.501,0.457,0.454,0.224,0.194,north,4.6,No
2015/09/22,09:10,0.476,0.276,0.504,0.456,0.451,0.224,0.195,north,4.8,No
2015/09/22,09:20,0.483,0.275,0.500,0.455,0.448,0.225,0.195,north-northwest,3.6,No
2015/09/22,09:30,0.480,0.275,0.501,0.459,0.446,0.225,0.195,north-northwest,4.4,No
2015/09/22,09:40,0.477,0.275,0.503,0.460,0.446,0.226,0.195,north,4.3,No
2015/09/22,09:50,0.475,0.278,0.496,0.457,0.445,0.224,0.195,north-northeast,2.8,No
2015/09/22,10:00,0.475,0.277,0.504,0.459,0.445,0.224,0.195,north-northeast,3.1,No
2015/09/22,10:10,0.476,0.278,0.504,0.462,0.447,0.225,0.195,north,4.8,No
2015/09/22,10:20,0.476,0.279,0.498,0.462,0.451,0.226,0.196,north-northeast,3.9,No
2015/09/22,10:30,0.474,0.279,0.502,0.462,0.449,0.226,0.196,north,3.0,No
2015/09/22,10:40,0.475,0.279,0.505,0.463,0.450,0.226,0.197,northeast,4.3,No
2015/09/22,10:50,0.476,0.279,0.501,0.462,0.450,0.227,0.196,northeast,5.3,No
2015/09/22,11:00,0.477,0.279,0.496,0.464,0.449,0.226,0.196,northeast,4.4,No
2015/09/22,11:10,0.476,0.279,0.496,0.463,0.449,0.226,0.196,northeast,4.7,No
2015/09/22,11:20,0.478,0.278,0.498,0.463,0.451,0.227,0.195,north-northeast,4.8,No
2015/09/22,11:30,0.478,0.279,0.497,0.462,0.451,0.226,0.194,northeast,4.4,No
2015/09/22,11:40,0.479,0.279,0.498,0.463,0.451,0.225,0.195,northeast,4.6,No
2015/09/22,11:50,0.482,0.279,0.499,0.461,0.451,0.226,0.195,northeast,4.8,No
2015/09/22,12:00,0.485,0.279,0.500,0.462,0.451,0.226,0.195,northeast,4.7,No
2015/09/22,12:10,0.485,0.278,0.500,0.462,0.452,0.227,0.195,northeast,7.0,No
2015/09/22,12:20,0.481,0.279,0.501,0.462,0.453,0.226,0.195,northeast,6.1,No
2015/09/22,12:30,0.479,0.282,0.501,0.461,0.451,0.225,0.196,northeast,5.9,No
2015/09/22,12:40,0.478,0.283,0.501,0.462,0.453,0.227,0.195,northeast,6.6,No
2015/09/22,12:50,0.485,0.282,0.500,0.461,0.450,0.226,0.195,northeast,5.8,No
2015/09/22,13:00,0.484,0.282,0.502,0.463,0.452,0.226,0.195,northeast,5.0,No
2015/09/22,13:10,0.481,0.280,0.502,0.462,0.452,0.225,0.195,north-northeast,4.9,No
2015/09/22,13:20,0.478,0.279,0.501,0.463,0.452,0.226,0.195,northeast,4.7,No
2015/09/22,13:30,0.485,0.280,0.502,0.463,0.453,0.226,0.195,northeast,3.9,No
2015/09/22,13:40,0.483,0.280,0.503,0.462,0.451,0.227,0.194,northeast,2.8,No
2015/09/22,13:50,0.483,0.279,0.504,0.462,0.451,0.227,0.196,east-northeast,2.6,No
2015/09/22,14:00,0.479,0.278,0.503,0.463,0.452,0.226,0.195,north-northeast,2.2,No
2015/09/22,14:10,0.479,0.279,0.502,0.460,0.452,0.225,0.195,northeast,2.8,No
2015/09/22,14:20,0.488,0.278,0.503,0.460,0.449,0.225,0.196,northeast,2.6,No
2015/09/22,14:30,0.483,0.280,0.502,0.461,0.450,0.225,0.195,northeast,4.1,No
2015/09/22,14:40,0.480,0.278,0.501,0.465,0.450,0.226,0.197,northeast,1.9,No
2015/09/22,14:50,0.479,0.278,0.500,0.469,0.452,0.225,0.197,northeast,1.6,No
2015/09/22,15:00,0.485,0.280,0.499,0.467,0.449,0.225,0.196,northeast,2.2,No
2015/09/22,15:10,0.484,0.284,0.505,0.463,0.455,0.226,0.198,northeast,2.6,No
2015/09/22,15:20,0.479,0.282,0.508,0.466,0.457,0.226,0.198,north-northeast,1.9,No
2015/09/22,15:30,0.484,0.281,0.504,0.469,0.456,0.227,0.196,northeast,2.4,No
2015/09/22,15:40,0.486,0.283,0.502,0.465,0.452,0.226,0.197,north,2.3,No
2015/09/22,15:50,0.481,0.281,0.510,0.464,0.450,0.226,0.196,north,3.0,No
2015/09/22,16:00,0.480,0.279,0.506,0.468,0.447,0.227,0.196,north,4.7,No
2015/09/22,16:10,0.486,0.284,0.501,0.464,0.450,0.226,0.196,north,3.5,No
2015/09/22,16:20,0.483,0.282,0.508,0.465,0.459,0.226,0.197,north,2.8,No
2015/09/22,16:30,0.479,0.279,0.505,0.470,0.458,0.227,0.196,north,2.2,No
2015/09/22,16:40,0.487,0.283,0.501,0.464,0.452,0.226,0.197,north,1.3,No
2015/09/22,16:50,0.485,0.282,0.508,0.464,0.454,0.226,0.197,north-northwest,1.6,No
2015/09/22,17:00,0.478,0.279,0.506,0.469,0.458,0.227,0.195,north,2.2,No
2015/09/22,17:10,0.485,0.284,0.502,0.464,0.451,0.226,0.198,north,1.9,No
2015/09/22,17:20,0.484,0.281,0.509,0.469,0.453,0.227,0.195,north,2.6,No
2015/09/22,17:30,0.481,0.282,0.508,0.468,0.460,0.226,0.197,north,2.5,No
2015/09/22,17:40,0.488,0.282,0.505,0.462,0.452,0.226,0.197,north,1.4,No
2015/09/22,17:50,0.481,0.281,0.508,0.470,0.457,0.226,0.197,north,0.9,No
2015/09/22,18:00,0.485,0.283,0.503,0.464,0.455,0.226,0.197,north,1.9,No
2015/09/22,18:10,0.485,0.281,0.507,0.470,0.453,0.227,0.196,north,2.5,No
2015/09/22,18:20,0.481,0.283,0.507,0.466,0.458,0.226,0.198,north,2.5,No
2015/09/22,18:30,0.486,0.280,0.504,0.466,0.452,0.227,0.196,north,2.3,No
2015/09/22,18:40,0.480,0.284,0.507,0.467,0.457,0.226,0.197,north-northwest,2.0,No
2015/09/22,18:50,0.485,0.281,0.503,0.464,0.453,0.228,0.198,north-northwest,1.9,No
2015/09/22,19:00,0.483,0.283,0.509,0.470,0.456,0.226,0.197,north-northwest,1.9,No
2015/09/22,19:10,0.483,0.281,0.505,0.462,0.452,0.227,0.196,northwest,2.1,No
2015/09/22,19:20,0.484,0.283,0.507,0.471,0.454,0.227,0.196,north-northwest,2.3,No
2015/09/22,19:30,0.480,0.281,0.507,0.465,0.454,0.227,0.196,northwest,2.3,No
2015/09/22,19:40,0.484,0.281,0.503,0.469,0.454,0.227,0.197,north-northwest,1.6,No
2015/09/22,19:50,0.480,0.280,0.508,0.464,0.454,0.227,0.196,north-northwest,1.4,No
2015/09/22,20:00,0.485,0.281,0.504,0.468,0.451,0.226,0.198,north-northwest,1.4,No
2015/09/22,20:10,0.482,0.281,0.509,0.466,0.456,0.227,0.198,north-northwest,1.4,No
2015/09/22,20:20,0.484,0.283,0.504,0.467,0.452,0.227,0.197,north-northwest,1.1,No
2015/09/22,20:30,0.482,0.281,0.509,0.467,0.458,0.226,0.197,north,1.4,No
2015/09/22,20:40,0.485,0.281,0.503,0.466,0.452,0.227,0.196,north-northwest,1.1,No
2015/09/22,20:50,0.484,0.282,0.508,0.468,0.455,0.227,0.197,north-northwest,1.4,No
2015/09/22,21:00,0.482,0.283,0.502,0.466,0.452,0.226,0.196,north-northwest,1.0,No
2015/09/22,21:10,0.484,0.281,0.506,0.465,0.454,0.226,0.197,north-northwest,1.2,No
2015/09/22,21:20,0.481,0.282,0.507,0.466,0.454,0.227,0.198,north-northwest,1.1,No
2015/09/22,21:30,0.485,0.281,0.504,0.467,0.453,0.228,0.197,north-northwest,1.0,No
2015/09/22,21:40,0.481,0.282,0.508,0.465,0.454,0.226,0.197,northwest,0.7,No
2015/09/22,21:50,0.485,0.280,0.505,0.469,0.452,0.226,0.197,northwest,0.6,No
2015/09/22,22:00,0.481,0.283,0.509,0.464,0.455,0.226,0.197,northwest,0.7,No
2015/09/22,22:10,0.486,0.282,0.505,0.468,0.451,0.228,0.197,-,CALM,No
2015/09/22,22:20,0.480,0.283,0.506,0.465,0.456,0.226,0.197,northwest,0.6,No
2015/09/22,22:30,0.485,0.281,0.504,0.468,0.452,0.228,0.197,north-northwest,0.8,No
2015/09/22,22:40,0.481,0.283,0.509,0.465,0.455,0.226,0.198,north-northwest,1.0,No
2015/09/22,22:50,0.485,0.280,0.504,0.470,0.450,0.228,0.197,north-northwest,0.8,No
2015/09/22,23:00,0.481,0.282,0.509,0.464,0.456,0.226,0.198,north-northwest,0.7,No
2015/09/22,23:10,0.485,0.281,0.505,0.469,0.450,0.227,0.197,north,0.9,No
2015/09/22,23:20,0.483,0.284,0.509,0.465,0.457,0.226,0.196,northwest,1.3,No
2015/09/22,23:30,0.483,0.281,0.505,0.469,0.451,0.226,0.197,north-northwest,1.7,No
2015/09/22,23:40,0.484,0.282,0.509,0.464,0.455,0.227,0.197,north,1.5,No
2015/09/22,23:50,0.483,0.281,0.505,0.468,0.451,0.227,0.197,northwest,1.3,No
